Regional Weather Roundup
Issued by NWS

Home | Current Version | Previous Version | Text Only | Print | Product List | Glossary On
Versions: 1 2 3 4 5 6 7 8 9 10 11 12 13 14 15 16 17 18 19 20 21 22 23 24 25 26 27
000
ASCA42 TJSJ 230310
RWRPR
PUERTO RICO/U.S. VIRGIN ISLANDS HOURLY WEATHER ROUNDUP
NATIONAL WEATHER SERVICE SAN JUAN PR
1100 PM AST MON MAY 22 2017

PRZ001>002-007>008-010-230400-
PUERTO RICO

CITY           SKY/WX    TMP DP  RH WIND       PRES   REMARKS
SAN JUAN LMM   PTCLDY    82  75  78 E13       30.06S
CEIBA          CLOUDY    79  75  89 E7        30.08S
$$

VIZ001>002-230400-
U.S. VIRGIN ISLANDS

CITY           SKY/WX    TMP DP  RH WIND       PRES   REMARKS
CHARLOTTE AMA  CLOUDY    82  75  78 E7        30.06R
CHRISTIANSTED  CLOUDY    81  75  83 E9        30.06S
$$

HOURLY WEATHER ROUNDUP FOR THE NEWS MEDIA

CITY           SKY/WX    TMP DP  RH WIND       PRES   REMARKS
ORLANDO        LGT RAIN  74  73  97 CALM      30.02S
NEW YORK       MOCLDY    63  61  93 NW7       29.96F
NEWARK         CLOUDY    59  59 100 W7        29.96F
CHICAGO        CLOUDY    61  53  75 SW15G22   29.91S
HARTFORD       LGT RAIN  56  55  97 S8        29.97F FOG
BOSTON         LGT RAIN  53  52  96 N8        29.99F FOG
DALLAS         CLOUDY    70  61  73 SE13      29.92R
PHILADELPHIA   CLOUDY    65  61  87 VRB6      29.97F
LOS ANGELES    CLOUDY    60  57  89 W10       29.93R
WASHINGTON DC  PTCLDY    63  60  90 SW3       29.98F



USA.gov is the U.S. government's official web portal to all federal, state and local government web resources and services.